GW7291 Weather Reports


time (UTC)temp
C
wind
direction
speed
KPH
gust
KPH
rain 1hr
cm
rain 24hr
cm
rain mn
cm
humidity
%
barometer
mb
20260906202320 37 195 3.2 6.4 0.00 0.00 0.00 34 1013.2
20260906201814 37 196 3.2 4.8 0.00 0.00 0.00 36 1013.4
20260906201314 38 176 4.8 9.7 0.00 0.00 0.00 34 1013.4
20260906200810 38 197 3.2 12.9 0.00 0.00 0.00 35 1013.2
20260906200306 38 166 6.4 9.7 0.00 0.00 0.00 34 1013.2
20260906195801 37 178 0.0 4.8 0.00 0.00 0.00 36 1013.4
20260906195257 38 62 6.4 11.3 0.00 0.00 0.00 36 1013.6
20260906194752 38 12 8.0 11.3 0.00 0.00 0.00 35 1013.4
20260906194243 38 136 1.6 3.2 0.00 0.00 0.00 36 1013.5
20260906193742 37 6 1.6 4.8 0.00 0.00 0.00 38 1013.9
20260906193237 37 71 6.4 14.5 0.00 0.00 0.00 37 1013.8
20260906192734 37 158 3.2 6.4 0.00 0.00 0.00 38 1014.0
20260906192228 36 164 3.2 3.2 0.00 0.00 0.00 41 1014.0
20260906191727 36 186 3.2 6.4 0.00 0.00 0.00 40 1014.0
20260906191222 36 163 4.8 11.3 0.00 0.00 0.00 40 1014.1
20260906190722 36 141 4.8 11.3 0.00 0.00 0.00 40 1014.1
20260906190216 36 168 8.0 12.9 0.00 0.00 0.00 40 1014.3
20260906185715 36 128 6.4 9.7 0.00 0.00 0.00 41 1014.5
20260906185215 36 151 1.6 3.2 0.00 0.00 0.00 40 1014.3
20260906184709 37 184 3.2 9.7 0.00 0.00 0.00 41 1014.3
20260906184205 37 139 4.8 6.4 0.00 0.00 0.00 38 1014.7
20260906183700 36 81 4.8 9.7 0.00 0.00 0.00 40 1014.7
20260906183156 36 277 0.0 6.4 0.00 0.00 0.00 41 1014.7
20260906182656 37 154 4.8 9.7 0.00 0.00 0.00 41 1014.8
20260906182152 37 140 8.0 14.5 0.00 0.00 0.00 39 1014.8
20260906181647 36 111 1.6 3.2 0.00 0.00 0.00 41 1014.9
20260906181143 35 113 3.2 6.4 0.00 0.00 0.00 41 1014.9
20260906180638 36 271 3.2 6.4 0.00 0.00 0.00 40 1015.2
20260906180139 37 199 6.4 12.9 0.00 0.00 0.00 39 1015.1
20260906175636 37 204 3.2 9.7 0.00 0.00 0.00 38 1015.2
20260906175132 37 180 4.8 6.4 0.00 0.00 0.00 38 1015.3
20260906174630 37 162 4.8 14.5 0.00 0.00 0.00 39 1015.5
20260906174125 37 166 6.4 9.7 0.00 0.00 0.00 39 1015.4
20260906173620 36 158 4.8 12.9 0.00 0.00 0.00 41 1015.6
20260906173116 35 106 0.0 3.2 0.00 0.00 0.00 41 1015.7
20260906172615 36 159 4.8 11.3 0.00 0.00 0.00 42 1015.8
20260906172111 36 146 4.8 4.8 0.00 0.00 0.00 43 1016.0
20260906171610 36 213 3.2 3.2 0.00 0.00 0.00 43 1015.8
20260906171107 35 146 4.8 6.4 0.00 0.00 0.00 44 1016.2
20260906170603 36 105 1.6 6.4 0.00 0.00 0.00 44 1016.0
20260906165558 35 58 3.2 4.8 0.00 0.00 0.00 43 1016.2
20260906165059 36 74 4.8 4.8 0.00 0.00 0.00 43 1016.3
20260906164558 36 181 1.6 4.8 0.00 0.00 0.00 44 1016.4
20260906164054 36 176 1.6 3.2 0.00 0.00 0.00 44 1016.5
20260906163549 36 187 3.2 3.2 0.00 0.00 0.00 43 1016.5
20260906163045 35 140 1.6 4.8 0.00 0.00 0.00 44 1016.4
20260906162542 36 160 1.6 4.8 0.00 0.00 0.00 45 1016.4
20260906162037 35 50 1.6 1.6 0.00 0.00 0.00 46 1016.3
20260906161532 35 121 0.0 1.6 0.00 0.00 0.00 45 1016.6
20260906161031 35 142 4.8 4.8 0.00 0.00 0.00 46 1016.5
20260906160530 34 144 1.6 6.4 0.00 0.00 0.00 46 1016.4
20260906160029 34 137 3.2 3.2 0.00 0.00 0.00 46 1016.4
20260906155526 34 180 3.2 4.8 0.00 0.00 0.00 45 1016.4
20260906155022 34 178 3.2 3.2 0.00 0.00 0.00 46 1016.4
20260906154518 34 192 3.2 4.8 0.00 0.00 0.00 47 1016.3
20260906154016 34 180 1.6 3.2 0.00 0.00 0.00 47 1016.4
20260906153515 34 166 3.2 6.4 0.00 0.00 0.00 48 1016.4
20260906153011 35 194 6.4 9.7 0.00 0.00 0.00 46 1016.2
20260906152511 35 185 3.2 4.8 0.00 0.00 0.00 46 1016.2
20260906152010 35 162 3.2 6.4 0.00 0.00 0.00 46 1016.2
20260906151506 34 268 8.0 9.7 0.00 0.00 0.00 47 1016.1
20260906151001 35 249 1.6 4.8 0.00 0.00 0.00 49 1016.1
20260906150456 34 202 3.2 4.8 0.00 0.00 0.00 48 1015.9
20260906145955 35 191 1.6 1.6 0.00 0.00 0.00 49 1016.3
20260906145456 33 190 1.6 3.2 0.00 0.00 0.00 49 1016.1
20260906144955 33 272 6.4 6.4 0.00 0.00 0.00 50 1016.0
20260906144450 33 262 3.2 9.7 0.00 0.00 0.00 50 1016.1
20260906143945 33 172 0.0 3.2 0.00 0.00 0.00 53 1016.1
20260906143441 32 207 4.8 4.8 0.00 0.00 0.00 55 1016.1
20260906142937 32 202 0.0 3.2 0.00 0.00 0.00 53 1016.0
20260906142437 32 194 1.6 1.6 0.00 0.00 0.00 56 1016.1
20260906141932 31 185 0.0 3.2 0.00 0.00 0.00 55 1015.9
20260906141431 31 181 4.8 4.8 0.00 0.00 0.00 55 1015.8
20260906140926 31 171 0.0 3.2 0.00 0.00 0.00 58 1016.0
20260906140420 30 124 0.0 1.6 0.00 0.00 0.00 59 1016.1
20260906135919 30 162 3.2 4.8 0.00 0.00 0.00 59 1016.0
20260906135418 30 177 1.6 4.8 0.00 0.00 0.00 60 1015.9
20260906134914 30 174 1.6 3.2 0.00 0.00 0.00 63 1015.9
20260906134409 28 170 1.6 3.2 0.00 0.00 0.00 62 1015.8
20260906133904 28 184 1.6 3.2 0.00 0.00 0.00 62 1015.9
20260906133359 28 172 3.2 3.2 0.00 0.00 0.00 64 1015.8
20260906132855 28 171 1.6 3.2 0.00 0.00 0.00 64 1015.8
20260906132350 28 170 1.6 1.6 0.00 0.00 0.00 64 1015.9
20260906131845 28 165 1.6 1.6 0.00 0.00 0.00 64 1015.6
20260906131341 28 197 1.6 3.2 0.00 0.00 0.00 63 1015.6
20260906130837 27 178 1.6 3.2 0.00 0.00 0.00 64 1015.6
20260906130336 27 179 1.6 3.2 0.00 0.00 0.00 66 1015.6
20260906125835 27 175 1.6 3.2 0.00 0.00 0.00 67 1015.6
20260906125332 26 158 3.2 3.2 0.00 0.00 0.00 67 1015.6
20260906124827 26 174 1.6 1.6 0.00 0.00 0.00 68 1015.4
20260906124323 26 176 1.6 1.6 0.00 0.00 0.00 69 1015.5
20260906123822 26 175 1.6 3.2 0.00 0.00 0.00 69 1015.3
20260906123318 26 168 3.2 4.8 0.00 0.00 0.00 68 1015.1
20260906122817 26 174 3.2 3.2 0.00 0.00 0.00 69 1015.3
20260906122312 26 171 3.2 3.2 0.00 0.00 0.00 69 1015.1
20260906121809 25 174 1.6 3.2 0.00 0.00 0.00 69 1015.2
20260906121305 25 173 3.2 3.2 0.00 0.00 0.00 70 1015.2
20260906120801 25 168 3.2 3.2 0.00 0.00 0.00 70 1015.0
20260906120257 25 174 1.6 4.8 0.00 0.00 0.00 70 1014.8
20260906115753 25 170 3.2 3.2 0.00 0.00 0.00 69 1015.0
20260906115248 25 174 3.2 4.8 0.00 0.00 0.00 70 1014.9
20260906114747 25 174 3.2 4.8 0.00 0.00 0.00 70 1014.9
20260906114242 25 178 3.2 4.8 0.00 0.00 0.00 71 1015.0
20260906113738 25 175 1.6 3.2 0.00 0.00 0.00 72 1014.6
20260906113237 25 175 1.6 3.2 0.00 0.00 0.00 72 1014.7
20260906112736 25 173 1.6 1.6 0.00 0.00 0.00 72 1014.7
20260906112233 25 173 3.2 3.2 0.00 0.00 0.00 71 1014.6
20260906111732 25 172 1.6 3.2 0.00 0.00 0.00 70 1014.3
20260906111227 25 174 1.6 3.2 0.00 0.00 0.00 69 1014.6
20260906110722 25 178 3.2 4.8 0.00 0.00 0.00 70 1014.7
20260906110218 25 180 1.6 4.8 0.00 0.00 0.00 70 1014.2
20260906105717 25 174 3.2 3.2 0.00 0.00 0.00 69 1014.5
20260906105213 25 176 3.2 4.8 0.00 0.00 0.00 69 1014.3
20260906104713 25 180 3.2 3.2 0.00 0.00 0.00 69 1014.2
20260906104212 25 172 3.2 3.2 0.00 0.00 0.00 69 1014.1
20260906103709 25 174 3.2 3.2 0.00 0.00 0.00 69 1014.2
20260906103205 25 178 3.2 4.8 0.00 0.00 0.00 69 1014.2
20260906102700 25 176 3.2 3.2 0.00 0.00 0.00 69 1014.2
20260906102200 25 176 3.2 3.2 0.00 0.00 0.00 69 1014.3
20260906101700 25 178 3.2 3.2 0.00 0.00 0.00 69 1014.1
20260906101155 25 179 1.6 3.2 0.00 0.00 0.00 70 1014.1
20260906100650 25 177 1.6 3.2 0.00 0.00 0.00 69 1014.1
20260906100150 25 178 1.6 3.2 0.00 0.00 0.00 69 1014.1
20260906095645 25 176 1.6 1.6 0.00 0.00 0.00 69 1014.1
20260906095141 25 175 1.6 1.6 0.00 0.00 0.00 69 1013.9
20260906094639 25 175 0.0 0.0 0.00 0.00 0.00 69 1013.9
20260906094136 25 175 0.0 0.0 0.00 0.00 0.00 69 1013.9
20260906093632 26 175 0.0 3.2 0.00 0.00 0.00 68 1014.1
20260906093131 26 175 3.2 3.2 0.00 0.00 0.00 67 1014.1
20260906092626 26 176 3.2 3.2 0.00 0.00 0.00 68 1014.1
20260906092121 26 176 3.2 3.2 0.00 0.00 0.00 66 1014.1
20260906091618 26 176 1.6 3.2 0.00 0.00 0.00 66 1014.2
20260906091114 26 176 3.2 3.2 0.00 0.00 0.00 65 1014.0
20260906090615 26 172 3.2 3.2 0.00 0.00 0.00 65 1013.9
20260906090114 26 178 3.2 3.2 0.00 0.00 0.00 65 1014.1
20260906085614 26 175 3.2 3.2 0.00 0.00 0.00 65 1013.9
20260906085108 26 176 3.2 3.2 0.00 0.00 0.00 65 1014.0
20260906084603 26 176 3.2 3.2 0.00 0.00 0.00 65 1013.9
20260906084101 26 176 1.6 1.6 0.00 0.00 0.00 66 1014.1
20260906083557 25 176 0.0 1.6 0.00 0.00 0.00 68 1013.9
20260906083057 26 175 0.0 0.0 0.00 0.00 0.00 70 1013.9
20260906082552 26 175 0.0 0.0 0.00 0.00 0.00 65 1014.0
20260906082048 26 176 0.0 1.6 0.00 0.00 0.00 64 1014.0
20260906081544 27 175 1.6 3.2 0.00 0.00 0.00 64 1013.8
20260906081039 27 175 3.2 3.2 0.00 0.00 0.00 63 1013.8
20260906080536 27 176 3.2 3.2 0.00 0.00 0.00 63 1013.7
20260906080032 27 176 3.2 3.2 0.00 0.00 0.00 64 1013.9
20260906075531 27 178 3.2 3.2 0.00 0.00 0.00 63 1013.8
20260906075026 27 176 3.2 4.8 0.00 0.00 0.00 63 1013.8
20260906074521 27 190 3.2 3.2 0.00 0.00 0.00 63 1013.9
20260906074019 27 174 3.2 3.2 0.00 0.00 0.00 62 1013.8
20260906073514 27 178 1.6 3.2 0.00 0.00 0.00 63 1013.8
20260906073011 27 178 1.6 3.2 0.00 0.00 0.00 64 1013.5
20260906072505 27 178 1.6 3.2 0.00 0.00 0.00 64 1013.9
20260906072001 26 178 1.6 3.2 0.00 0.00 0.00 65 1013.9
20260906071457 26 182 1.6 1.6 0.00 0.00 0.00 65 1013.8
20260906070952 25 172 0.0 1.6 0.00 0.00 0.00 67 1013.9
20260906070448 25 176 1.6 1.6 0.00 0.00 0.00 69 1013.9
20260906065944 25 176 0.0 1.6 0.00 0.00 0.00 69 1014.0
20260906065443 26 176 0.0 0.0 0.00 0.00 0.00 68 1014.1
20260906064939 26 176 0.0 1.6 0.00 0.00 0.00 67 1013.9
20260906064436 26 176 0.0 0.0 0.00 0.00 0.00 65 1014.1
20260906063936 26 176 0.0 0.0 0.00 0.00 0.00 64 1013.9
20260906063431 26 176 1.6 1.6 0.00 0.00 0.00 65 1013.8
20260906062926 26 176 0.0 1.6 0.00 0.00 0.00 68 1013.9
20260906062427 26 176 0.0 0.0 0.00 0.00 0.00 66 1014.1
20260906061921 26 176 0.0 0.0 0.00 0.00 0.00 63 1014.1
20260906061418 27 176 0.0 0.0 0.00 0.00 0.00 63 1014.1
20260906060912 27 176 1.6 1.6 0.00 0.00 0.00 62 1014.2
20260906060409 27 176 1.6 1.6 0.00 0.00 0.00 62 1014.0
20260906055905 27 175 1.6 3.2 0.00 0.00 0.00 61 1014.0
20260906055401 27 176 1.6 3.2 0.00 0.00 0.00 61 1013.9
20260906054856 27 175 1.6 3.2 0.00 0.00 0.00 60 1014.1
20260906054350 27 176 1.6 3.2 0.00 0.00 0.00 60 1013.9
20260906053847 27 178 1.6 3.2 0.00 0.00 0.00 61 1014.0
20260906053342 27 161 1.6 3.2 0.00 0.00 0.00 61 1014.0
20260906052838 27 159 0.0 3.2 0.00 0.00 0.00 60 1014.0
20260906052334 27 172 0.0 1.6 0.00 0.00 0.00 59 1013.8
20260906051831 28 156 1.6 4.8 0.00 0.00 0.00 59 1013.8
20260906051330 28 171 3.2 4.8 0.00 0.00 0.00 59 1013.7
20260906050826 27 137 3.2 6.4 0.00 0.00 0.00 60 1013.9
20260906050321 26 173 1.6 3.2 0.00 0.00 0.00 65 1013.8
20260906045820 26 176 0.0 0.0 0.00 3.76 3.76 65 1013.6
20260906045314 26 176 0.0 0.0 0.00 3.76 3.76 65 1013.8
20260906044811 26 176 0.0 0.0 0.00 3.76 3.76 64 1013.7
20260906044305 26 176 0.0 0.0 0.00 3.76 3.76 64 1013.8
20260906043801 27 176 0.0 1.6 0.00 3.76 3.76 63 1013.8
20260906043257 27 176 0.0 0.0 0.00 3.76 3.76 61 1013.8
20260906042756 27 178 0.0 0.0 0.00 3.76 3.76 59 1013.7
20260906042256 27 178 0.0 0.0 0.00 3.76 3.76 59 1013.8
20260906041751 27 178 0.0 0.0 0.00 3.76 3.76 59 1013.6
20260906041247 28 178 0.0 0.0 0.00 3.76 3.76 59 1013.8
20260906040742 28 178 0.0 0.0 0.00 3.76 3.76 58 1013.6
20260906040237 28 178 1.6 1.6 0.00 3.76 3.76 57 1013.8
20260906035732 28 176 0.0 1.6 0.00 3.76 3.76 59 1013.8
20260906035228 28 178 0.0 0.0 0.00 3.76 3.76 57 1014.0
20260906034728 28 178 0.0 1.6 0.00 3.76 3.76 57 1013.9
20260906034223 28 176 0.0 0.0 0.00 3.76 3.76 56 1013.8
20260906033719 28 178 0.0 0.0 0.00 3.76 3.76 56 1013.9
20260906033218 28 176 0.0 0.0 0.00 3.76 3.76 56 1013.7
20260906032715 29 176 0.0 0.0 0.00 3.76 3.76 56 1013.7
20260906032215 30 176 0.0 1.6 0.00 3.76 3.76 54 1013.7
20260906031710 30 178 1.6 1.6 0.00 3.76 3.76 53 1013.6
20260906031206 30 178 1.6 1.6 0.00 3.76 3.76 52 1013.7
20260906030705 30 177 1.6 3.2 0.00 3.76 3.76 52 1013.6
20260906030201 30 176 3.2 3.2 0.00 3.76 3.76 52 1013.6
20260906025700 30 174 1.6 3.2 0.00 3.76 3.76 52 1013.5
20260906025200 30 175 1.6 1.6 0.00 3.76 3.76 54 1013.7
20260906024654 30 176 1.6 1.6 0.00 3.76 3.76 51 1013.5
20260906024153 31 176 1.6 3.2 0.00 3.76 3.76 51 1013.3
20260906023649 31 174 1.6 3.2 0.00 3.76 3.76 50 1013.4
20260906023149 31 176 3.2 3.2 0.00 3.76 3.76 51 1013.2
20260906022644 30 167 3.2 3.2 0.00 3.76 3.76 51 1013.1
20260906022140 30 164 3.2 3.2 0.00 3.76 3.76 53 1013.1
20260906021636 30 163 1.6 3.2 0.00 3.76 3.76 53 1013.1
20260906021134 30 159 1.6 1.6 0.00 3.76 3.76 53 1013.1
20260906020635 29 159 0.0 1.6 0.00 3.76 3.76 55 1013.1
20260906020130 29 159 0.0 1.6 0.00 3.76 3.76 55 1012.9
20260906015624 30 159 0.0 0.0 0.00 3.76 3.76 54 1012.8
20260906015122 30 159 1.6 1.6 0.00 3.76 3.76 54 1013.0
20260906014623 30 159 0.0 0.0 0.00 3.76 3.76 52 1012.9
20260906014119 31 159 0.0 1.6 0.00 3.76 3.76 51 1012.7
20260906013614 31 159 0.0 0.0 0.00 3.76 3.76 49 1012.7
20260906013109 31 159 0.0 0.0 0.00 3.76 3.76 48 1012.9
20260906012604 32 159 1.6 1.6 0.00 3.76 3.76 48 1012.8
20260906012059 32 159 1.6 1.6 0.00 3.76 3.76 47 1012.7
20260906011555 32 159 1.6 1.6 0.00 3.76 3.76 47 1012.7
20260906011054 32 159 1.6 1.6 0.00 3.76 3.76 46 1012.6
20260906010550 32 158 0.0 1.6 0.00 3.76 3.76 46 1012.4
20260906010046 32 158 1.6 1.6 0.00 3.76 3.76 46 1012.5
20260906005545 33 158 0.0 1.6 0.00 3.76 3.76 45 1012.4
20260906005044 33 158 1.6 1.6 0.00 3.76 3.76 45 1012.4
20260906004544 33 173 0.0 1.6 0.00 3.76 3.76 44 1012.3
20260906004039 34 172 1.6 1.6 0.00 3.76 3.76 43 1012.5
20260906003534 34 165 1.6 3.2 0.00 3.76 3.76 41 1012.4
20260906003030 35 170 1.6 1.6 0.00 3.76 3.76 41 1012.3
20260906002525 35 155 3.2 4.8 0.00 3.76 3.76 40 1012.3
20260906002020 35 161 1.6 3.2 0.00 3.76 3.76 40 1012.4
20260906001516 35 154 1.6 3.2 0.00 3.76 3.76 40 1012.4
20260906001015 35 174 3.2 3.2 0.00 3.76 3.76 39 1012.2
20260906000512 36 178 3.2 3.2 0.00 3.76 3.76 39 1012.3
20260906000006 36 171 3.2 9.7 0.00 3.76 3.76 38 1012.1
20260905235506 36 175 3.2 4.8 0.00 3.76 3.76 38 1012.3
20260905235001 36 197 3.2 4.8 0.00 3.76 3.76 37 1012.3
20260905234456 36 170 3.2 6.4 0.00 3.76 3.76 37 1012.2
20260905233956 36 128 6.4 6.4 0.00 3.76 3.76 37 1012.1
20260905233452 36 189 3.2 4.8 0.00 3.76 3.76 36 1012.0
20260905232950 36 146 6.4 9.7 0.00 3.76 3.76 37 1011.8
20260905232447 36 173 1.6 4.8 0.00 3.76 3.76 37 1011.9
20260905231942 36 147 3.2 4.8 0.00 3.76 3.76 37 1011.9
20260905231438 37 191 3.2 4.8 0.00 3.76 3.76 37 1012.0
20260905230934 36 82 3.2 4.8 0.00 3.76 3.76 37 1011.9
20260905230432 37 132 6.4 9.7 0.00 3.76 3.76 37 1012.0
20260905225931 37 169 3.2 4.8 0.00 3.76 3.76 37 1011.9
20260905225426 36 174 4.8 11.3 0.00 3.76 3.76 37 1012.0
20260905224921 36 173 3.2 6.4 0.00 3.76 3.76 38 1012.0
20260905224417 37 141 6.4 9.7 0.00 3.76 3.76 38 1011.9
20260905223916 36 161 0.0 3.2 0.00 3.76 3.76 38 1012.0
20260905223415 36 190 3.2 6.4 0.00 3.76 3.76 38 1012.0
20260905222915 37 111 6.4 9.7 0.00 3.76 3.76 36 1011.8
20260905222414 36 137 3.2 4.8 0.00 3.76 3.76 37 1012.0
20260905221910 37 143 3.2 11.3 0.00 3.76 3.76 37 1011.9
20260905221406 37 160 6.4 9.7 0.00 3.76 3.76 37 1012.0
20260905220902 37 193 8.0 12.9 0.00 3.76 3.76 37 1011.9
20260905220358 37 169 3.2 4.8 0.00 3.76 3.76 36 1012.1
20260905215857 37 118 3.2 4.8 0.00 3.76 3.76 35 1011.8
20260905215353 37 66 4.8 11.3 0.00 3.76 3.76 36 1012.0
20260905214849 37 151 8.0 11.3 0.00 3.76 3.76 36 1012.0
20260905214344 37 157 6.4 9.7 0.00 3.76 3.76 36 1012.2
20260905213839 37 125 4.8 11.3 0.00 3.76 3.76 37 1012.2
20260905213335 37 130 3.2 4.8 0.00 3.76 3.76 38 1012.1
20260905212830 37 117 0.0 3.2 0.00 3.76 3.76 41 1012.4
20260905212330 37 98 4.8 12.9 0.00 3.76 3.76 36 1012.5
20260905211824 37 71 1.6 9.7 0.00 3.76 3.76 38 1012.5
20260905211320 37 147 3.2 6.4 0.00 3.76 3.76 39 1012.6
20260905210816 36 25 1.6 6.4 0.00 3.76 3.76 39 1012.8
20260905210316 37 144 6.4 9.7 0.00 3.76 3.76 38 1013.0
20260905205814 36 119 6.4 6.4 0.00 3.76 3.76 38 1012.8
20260905205309 37 188 9.7 14.5 0.00 3.76 3.76 38 1013.0
20260905204808 37 150 8.0 14.5 0.00 3.76 3.76 38 1013.0
20260905204305 37 73 4.8 9.7 0.00 3.76 3.76 38 1012.8
20260905203803 37 184 6.4 11.3 0.00 3.76 3.76 38 1013.0
20260905203259 37 129 6.4 9.7 0.00 3.76 3.76 39 1013.1